Vancouver, WA

7:44 PM PDT on June 27, 2017 (GMT -0700)
Pearson

Weather History for KVUO - November, 2011

Change the Weather History Date:

Thursday, November 3, 2011

  Actual Average Record
Temperature  
Mean Temperature 47 °F 49 °F  
Max Temperature 51 °F 57 °F 72 °F (2010)
Min Temperature 42 °F 42 °F 17 °F (1935)
Degree Days  
Heating Degree Days 18    
Month to date heating degree days 62  
Since 1 July heating degree days 407  
Cooling Degree Days 0    
Month to date cooling degree days 0  
Year to date cooling degree days 339  
Moisture  
Dew Point 40 °F    
Average Humidity 80    
Maximum Humidity 96    
Minimum Humidity 63    
Precipitation  
Precipitation 0.02 in 0.16 in 1.53 in (1944)
Month to date precipitation 0.62 0.48  
Year to date precipitation 28.57 26.94  
Snow  
Snow 0.00 in - - ()
Snow Depth 0.00 in    
Sea Level Pressure  
Sea Level Pressure 29.88 in    
Wind  
Wind Speed 2 mph (WSW)    
Max Wind Speed 6 mph    
Max Gust Speed 8 mph    
Visibility 9 miles    
Events      
T = Trace of Precipitation, MM = Missing Value Source: NWS Daily Summary

Daily Weather History Graph

Daily Weather History Graph

Search for Another Location

Airport or City:

Trip Planner

Search our weather history database for the weather conditions in past years. The results will help you decide how hot, cold, wet, or windy it might be!

Date:

Astronomy

Nov. 03, 2011 Rise Set
Actual Time 7:52 AM PDT 5:54 PM PDT
Civil Twilight 7:21 AM PDT 6:25 PM PDT
Nautical Twilight 6:46 AM PDT 7:01 PM PDT
Astronomical Twilight 6:12 AM PDT 7:35 PM PDT
Moon 2:38 PM PDT (11/3) 12:51 AM PDT (11/3)
Length of Visible Light 11h 04m
Length of Day
10h 01m
First Quarter, 61% of the Moon is Illuminated
Nov 3
First Quarter
Nov 10
Full
Nov 18
Last Quarter
Nov 24
New
Dec 2
First Quarter

Hourly Weather History & Observations

Time (PDT) Temp. Windchill Dew Point Humidity Pressure Visibility Wind Dir Wind Speed Gust Speed Precip Events Conditions
12:53 AM 48.0 °F - 45.0 °F 89% 29.93 in 10.0 mi Calm Calm - 0.01 in   Overcast
2:43 AM 48.2 °F - 44.6 °F 87% 29.91 in 10.0 mi East 3.5 mph - 0.01 in   Overcast
2:53 AM 48.0 °F - 45.0 °F 89% 29.91 in 10.0 mi Calm Calm - 0.01 in   Overcast
3:53 AM 48.0 °F - 44.1 °F 86% 29.90 in 10.0 mi South 4.6 mph - N/A   Overcast
4:46 AM 46.4 °F - 44.6 °F 93% 29.89 in 10.0 mi Calm Calm - N/A   Overcast
5:10 AM 46.4 °F 45.2 °F 42.8 °F 87% 29.89 in 10.0 mi South 3.5 mph - N/A   Mostly Cloudy
5:19 AM 46.4 °F 45.2 °F 42.8 °F 87% 29.90 in 10.0 mi South 3.5 mph - N/A   Overcast
5:29 AM 46.4 °F 45.2 °F 42.8 °F 87% 29.90 in 10.0 mi South 3.5 mph - N/A   Mostly Cloudy
5:53 AM 45.0 °F - 42.1 °F 90% 29.90 in 10.0 mi Calm Calm - N/A   Clear
6:53 AM 43.0 °F - 41.0 °F 93% 29.90 in 10.0 mi Calm Calm - N/A   Scattered Clouds
7:02 AM 44.6 °F - 42.8 °F 93% 29.90 in 10.0 mi Calm Calm - N/A   Mostly Cloudy
7:53 AM 45.0 °F - 43.0 °F 93% 29.91 in 10.0 mi Calm Calm - N/A   Overcast
8:53 AM 46.9 °F - 42.1 °F 83% 29.90 in 10.0 mi Calm Calm - N/A   Overcast
9:53 AM 46.9 °F - 42.1 °F 83% 29.91 in 10.0 mi SSE 4.6 mph - N/A   Overcast
10:53 AM 46.9 °F - 41.0 °F 80% 29.91 in 10.0 mi Calm Calm - N/A   Overcast
11:18 AM 46.4 °F 44.3 °F 39.2 °F 76% 29.90 in 10.0 mi WSW 4.6 mph - N/A   Overcast
11:53 AM 46.9 °F - 39.9 °F 77% 29.90 in 10.0 mi Calm Calm - N/A   Overcast
12:53 PM 48.0 °F - 39.9 °F 74% 29.88 in 10.0 mi WNW 3.5 mph - N/A   Overcast
1:35 PM 50.0 °F - 41.0 °F 71% 29.87 in 10.0 mi WNW 5.8 mph - N/A   Mostly Cloudy
1:53 PM 50.0 °F - 39.9 °F 68% 29.87 in 10.0 mi West 4.6 mph - N/A   Scattered Clouds
2:53 PM 51.1 °F - 39.9 °F 66% 29.86 in 10.0 mi Calm Calm - N/A   Scattered Clouds
3:53 PM 51.1 °F - 39.0 °F 63% 29.84 in 10.0 mi Calm Calm - N/A   Partly Cloudy
4:53 PM 51.1 °F - 39.0 °F 63% 29.83 in 10.0 mi NNW 4.6 mph - N/A   Clear
5:53 PM 48.0 °F - 39.9 °F 74% 29.84 in 10.0 mi NW 3.5 mph - N/A   Clear
7:53 PM 39.0 °F - 37.0 °F 93% 29.85 in 10.0 mi Calm Calm - N/A   Clear
8:53 PM 44.1 °F 42.5 °F 39.9 °F 85% 29.85 in 10.0 mi NW 3.5 mph - N/A   Clear
9:53 PM 37.0 °F - 35.1 °F 93% 29.86 in 8.0 mi Calm Calm - N/A   Clear
10:15 PM 37.4 °F - 35.6 °F 93% 29.87 in 1.8 mi Calm Calm - N/A   Clear
10:26 PM 39.2 °F - 35.6 °F 87% 29.87 in 3.0 mi Calm Calm - N/A   Clear
10:42 PM 35.6 °F - 33.8 °F 93% 29.87 in 1.2 mi Calm Calm - N/A   Partly Cloudy
10:53 PM 37.0 °F - 34.0 °F 89% 29.87 in 1.5 mi Calm Calm - N/A   Partly Cloudy
11:01 PM 35.6 °F - 33.8 °F 93% 29.87 in 4.0 mi Calm Calm - N/A   Scattered Clouds
11:09 PM 35.6 °F - 35.6 °F 100% 29.87 in 10.0 mi Calm Calm - N/A   Mostly Cloudy
11:53 PM 39.9 °F - 37.9 °F 93% 29.87 in 9.0 mi Calm Calm - N/A   Mostly Cloudy